Morristown, NJ

4:01 PM EDT on June 25, 2018 (GMT -0400)
Morristown Municipal

Weather History for KMMU - October, 2017

Change the Weather History Date:

Monday, October 9, 2017

  Actual Average Record
Temperature  
Mean Temperature 73 °F -  
Max Temperature 77 °F 67 °F 86 °F (1942)
Min Temperature 69 °F 42 °F 25 °F (1937)
Cooling Degree Days 8    
Growing Degree Days 23 (Base 50)    
Moisture  
Dew Point 72 °F    
Average Humidity 96    
Maximum Humidity 100    
Minimum Humidity 83    
Precipitation  
Precipitation 0.06 in - - ()
Sea Level Pressure  
Sea Level Pressure 29.93 in    
Wind  
Wind Speed 3 mph (SSW)    
Max Wind Speed 17 mph    
Max Gust Speed 39 mph    
Visibility 7 miles    
Events Rain    
Averages and records for this station are not official NWS values.
T = Trace of Precipitation, MM = Missing Value Source: NWS Daily Summary

Daily Weather History Graph

Daily Weather History Graph

Search for Another Location

Airport or City:

Astronomy

Oct. 09, 2017 Rise Set
Actual Time 7:02 AM EDT 6:26 PM EDT
Civil Twilight 6:35 AM EDT 6:53 PM EDT
Nautical Twilight 6:03 AM EDT 7:25 PM EDT
Astronomical Twilight 5:31 AM EDT 7:57 PM EDT
Moon 9:32 PM EDT (10/9) 11:11 AM EDT (10/9)
Length of Visible Light 12h 18m
Length of Day
11h 23m
Waning Gibbous, 81% of the Moon is Illuminated
Oct 9
Waning Gibbous
Oct 12
Last Quarter
Oct 19
New
Oct 27
First Quarter
Nov 4
Full

Hourly Weather History & Observations

Time (EDT) Temp. Dew Point Humidity Pressure Visibility Wind Dir Wind Speed Gust Speed Precip Events Conditions
12:15 AM 69.8 °F 69.8 °F 100% 30.00 in 7.0 mi Calm Calm - N/A Rain Light Rain
12:35 AM 69.8 °F 69.8 °F 100% 30.00 in 5.0 mi Calm Calm - N/A   Scattered Clouds
12:55 AM 69.8 °F 69.8 °F 100% 30.00 in 5.0 mi Calm Calm - N/A   Mostly Cloudy
1:15 AM 69.8 °F 69.8 °F 100% 30.00 in 7.0 mi Calm Calm - N/A Rain Light Rain
1:35 AM 69.8 °F 69.8 °F 100% 29.99 in 5.0 mi Calm Calm - N/A Rain Light Rain
1:55 AM 69.8 °F 69.8 °F 100% 29.99 in 5.0 mi Calm Calm - N/A   Overcast
2:15 AM 69.8 °F 69.8 °F 100% 29.99 in 7.0 mi Calm Calm - N/A   Overcast
2:35 AM 69.8 °F 69.8 °F 100% 29.98 in 5.0 mi Calm Calm - N/A   Overcast
2:55 AM 69.8 °F 69.8 °F 100% 29.98 in 2.5 mi Calm Calm - N/A   Mostly Cloudy
3:15 AM 69.8 °F 69.8 °F 100% 29.98 in 5.0 mi Calm Calm - N/A   Overcast
3:35 AM 69.8 °F 69.8 °F 100% 29.98 in 5.0 mi Calm Calm - 0.01 in Rain Rain
3:55 AM 69.8 °F 69.8 °F 100% 29.98 in 4.0 mi Calm Calm - N/A   Drizzle
4:15 AM 69.8 °F 69.8 °F 100% 29.96 in 4.0 mi Calm Calm - 0.01 in Rain Rain
4:35 AM 71.6 °F 71.6 °F 100% 29.96 in 4.0 mi Calm Calm - 0.05 in Rain Light Rain
4:55 AM 71.6 °F 71.6 °F 100% 29.96 in 7.0 mi South 3.5 mph - N/A Rain Light Rain
5:15 AM 71.6 °F 71.6 °F 100% 29.97 in 7.0 mi Calm Calm - N/A   Overcast
5:35 AM 71.6 °F 71.6 °F 100% 29.97 in 10.0 mi Calm Calm - N/A   Overcast
5:55 AM 71.6 °F 71.6 °F 100% 29.97 in 10.0 mi Calm Calm - N/A Rain Light Rain
6:15 AM 71.6 °F 71.6 °F 100% 29.96 in 10.0 mi South 3.5 mph - N/A Rain Light Rain
6:35 AM 71.6 °F 71.6 °F 100% 29.97 in 10.0 mi South 4.6 mph - N/A   Overcast
6:45 AM 73.4 °F 71.6 °F 94% 29.97 in 7.0 mi SSW 10.4 mph - N/A Rain Light Rain
7:45 AM 73.4 °F 71.6 °F 94% 29.98 in 7.0 mi SSW 9.2 mph 13.8 mph N/A   Overcast
8:45 AM 73.4 °F 71.6 °F 94% 29.97 in 7.0 mi South 8.1 mph - N/A   Overcast
9:45 AM 73.4 °F 71.6 °F 94% 29.95 in 7.0 mi South 8.1 mph - N/A   Overcast
9:46 AM 73.4 °F 71.6 °F 94% 29.95 in 7.0 mi South 8.1 mph - N/A   Overcast
10:00 AM 73.4 °F 71.6 °F 94% 29.95 in 7.0 mi South 8.1 mph - N/A Rain Light Rain
10:50 AM 73.4 °F 71.6 °F 94% 29.93 in 7.0 mi South 9.2 mph 20.7 mph N/A Rain Light Rain
11:45 AM 73.4 °F 71.6 °F 94% 29.91 in 5.0 mi SSW 17.3 mph 24.2 mph N/A Rain Rain
12:45 PM 73.4 °F 71.6 °F 94% 29.85 in 2.0 mi South 11.5 mph 23.0 mph N/A Rain Rain
1:50 PM 75.2 °F 71.6 °F 89% 29.82 in 7.0 mi South 15.0 mph 39.1 mph N/A Rain Light Rain
2:45 PM 73.4 °F 71.6 °F 94% 29.82 in 4.0 mi SSW 13.8 mph 20.7 mph N/A Rain Light Rain
2:46 PM 73.4 °F 71.6 °F 94% 29.82 in 4.0 mi SSW 13.8 mph 20.7 mph N/A Rain Light Rain
3:50 PM 75.2 °F 73.4 °F 94% 29.82 in 5.0 mi SW 10.4 mph 16.1 mph N/A Rain Light Rain
4:45 PM 75.2 °F 73.4 °F 94% 29.83 in 5.0 mi SW 12.7 mph 17.3 mph N/A Rain Light Rain
5:49 PM 75.2 °F 73.4 °F 94% 29.84 in 5.0 mi WSW 6.9 mph - N/A   Overcast
6:28 PM 77.0 °F 73.4 °F 89% 29.85 in 8.0 mi SW 9.2 mph - N/A   Overcast
6:55 PM 75.2 °F 73.4 °F 94% 29.86 in 7.0 mi SW 11.5 mph - N/A   Overcast
7:45 PM 75.2 °F 73.4 °F 94% 29.87 in 7.0 mi SW 8.1 mph - N/A   Overcast
8:50 PM 75.2 °F 73.4 °F 94% 29.89 in 7.0 mi WSW 6.9 mph - N/A   Mostly Cloudy
9:45 PM 75.2 °F 73.4 °F 94% 29.90 in 10.0 mi WSW 6.9 mph - N/A   Mostly Cloudy
10:35 PM 75.2 °F 73.4 °F 94% 29.91 in 10.0 mi Calm Calm - N/A   Overcast
10:55 PM 75.2 °F 73.4 °F 94% 29.92 in 10.0 mi Calm Calm - N/A   Overcast
11:15 PM 75.2 °F 73.4 °F 94% 29.92 in 10.0 mi Calm Calm - N/A   Overcast
11:35 PM 75.2 °F 73.4 °F 94% 29.94 in 10.0 mi NW 5.8 mph - N/A   Overcast
11:55 PM 75.2 °F 69.8 °F 83% 29.95 in 10.0 mi NW 5.8 mph - N/A   Overcast